Погода в Гражданском

Россия / Ставропольский край     44°13′40″N   42°46′28″E
темп.,
°C
ветер,
м/с
пор.,
м/с
влажн.,
%
обл.,
%
осадки,
мм/ч
давл.,
гПа
погр.,
м
23 сентября, чт
чт2300:00+10сз3490100 1.7 1014345
03:00+10сз2392100 2.7 1014287
06:00+10с2292100 0.4 1014260
09:00+10св2290100 0.8 1014283
12:00+10св2387100 0.1 1013386
15:00+10всв3391100 0.3 1012482
18:00+10всв2288100 0.0 1013244
21:00+10в2493100 0.3 1012221
24 сентября, пт
пт2400:00+9всв1297100 0.1 101298
03:00+10с1196100 0.3 1011152
06:00+10ссз1297100 2.9 1012192
09:00+9сз5794100 6.1 1015506
12:00+10зсз3579100 0.4 1015656
15:00+14зсз3558100 0.4 10141371
18:00+12св0066100 0.0 101410
21:00+12юз116991 0.0 101612
25 сентября, сб
сб2500:00+11сз2373100 0.0 101684
03:00+9ююв1185100 0.0 101411
06:00+9юв3679100 0.0 1013136
09:00+14юв1257100 0.0 1011300
12:00+15сз9858100 0.0 10141300
15:00+11зсз61368100 0.1 10161105
18:00+11зюз51278100 1.4 1017646
21:00+11з61274100 1.6 1018869
26 сентября, вс
вс2600:00+10з6148275 0.0 1019873
03:00+9з6148454 0.0 1021734
06:00+10з5128191 0.0 1022730
09:00+13зсз8126212 0.0 10221184
12:00+17зсз912453 0.0 10201669
15:00+18зсз811427 0.0 10191810
18:00+14зсз6126721 0.0 1020560
21:00+11зюз397952 0.0 1019280
27 сентября, пн
пн2700:00+11зюз347910 0.0 101877
03:00+12з412632 0.0 1017301
06:00+11зюз376512 0.0 1017158
09:00+15зсз6116295 0.1 10171102
12:00+16з696499 0.1 10171233
15:00+16сз4761100 0.2 10161059
18:00+15сз2363100 0.0 101749
21:00+14ссв1164100 0.0 101723